Location: Gombori
(14.9797°N, 2.9419°W)
Time: 00:14:05
(UTC+00:00)

Meteor 2-13 Rocket - Pass Details

Date: 06 December 2021
Orbit: 936 x 957 km, 82.5° (Epoch: 24 January)

Event Time Altitude Azimuth Distance (km) Brightness Sun altitude
Rises 03:35:18 0° 156° (SSE) 3,620 7.9 -39.4°
Reaches altitude 10° 03:38:15 10° 143° (SE) 2,672 7.3 -38.7°
Maximum altitude 03:43:06 25° 90° (E) 1,813 6.4 -37.6°
Drops below altitude 10° 03:47:56 10° 38° (NE) 2,663 7.0 -36.5°
Sets 03:50:50 0° 25° (NNE) 3,605 7.6 -35.8°
